TimeCDT,TemperatureF,Dew PointF,Humidity,Sea Level PressureIn,VisibilityMPH,Wind Direction,Wind SpeedMPH,Gust SpeedMPH,PrecipitationIn,Events,Conditions,WindDirDegrees,DateUTC
12:51 AM,78.8,73.4,83,30.08,10.0,ENE,8.1,-,N/A,,Overcast,70,2012-10-11 05:51:00
1:33 AM,78.8,73.4,83,30.07,10.0,East,5.8,-,N/A,,Overcast,80,2012-10-11 06:33:00
1:53 AM,78.1,73.9,87,30.07,9.0,ESE,6.9,-,N/A,,Overcast,110,2012-10-11 06:53:00
2:03 AM,78.8,73.4,83,30.06,9.0,ESE,9.2,-,N/A,,Overcast,120,2012-10-11 07:03:00
2:53 AM,79.0,75.0,88,30.06,8.0,SE,9.2,-,N/A,,Clear,130,2012-10-11 07:53:00
3:53 AM,78.1,73.9,87,30.05,7.0,ESE,4.6,-,N/A,,Clear,110,2012-10-11 08:53:00
4:53 AM,75.9,72.0,87,30.05,6.0,East,4.6,-,N/A,,Partly Cloudy,90,2012-10-11 09:53:00
5:53 AM,75.9,73.0,91,30.06,7.0,East,3.5,-,N/A,,Scattered Clouds,90,2012-10-11 10:53:00
6:53 AM,75.9,73.0,91,30.08,6.0,East,3.5,-,N/A,,Scattered Clouds,80,2012-10-11 11:53:00
7:53 AM,77.0,73.0,88,30.10,7.0,SE,5.8,-,N/A,,Mostly Cloudy,130,2012-10-11 12:53:00
8:53 AM,81.0,75.0,82,30.11,9.0,SE,9.2,-,N/A,,Clear,130,2012-10-11 13:53:00
9:53 AM,84.0,73.9,72,30.14,10.0,SE,12.7,19.6,N/A,,Partly Cloudy,140,2012-10-11 14:53:00
10:33 AM,84.2,73.4,70,30.14,10.0,SSE,15.0,19.6,N/A,,Mostly Cloudy,150,2012-10-11 15:33:00
10:50 AM,86.0,71.6,62,30.14,10.0,SSE,15.0,-,N/A,,Scattered Clouds,150,2012-10-11 15:50:00
10:53 AM,86.0,72.0,63,30.14,10.0,SSE,12.7,-,N/A,,Scattered Clouds,150,2012-10-11 15:53:00
11:53 AM,87.1,72.0,61,30.14,10.0,SSE,17.3,-,N/A,,Partly Cloudy,150,2012-10-11 16:53:00
12:53 PM,87.1,73.0,63,30.12,10.0,SE,17.3,-,N/A,,Scattered Clouds,140,2012-10-11 17:53:00
1:53 PM,84.0,72.0,67,30.11,10.0,SSE,12.7,-,N/A,,Clear,160,2012-10-11 18:53:00
2:53 PM,84.0,73.9,72,30.10,10.0,SSE,10.4,-,N/A,,Scattered Clouds,160,2012-10-11 19:53:00
3:15 PM,84.2,73.4,70,30.10,10.0,SSE,12.7,-,N/A,,Mostly Cloudy,150,2012-10-11 20:15:00
3:43 PM,84.2,73.4,70,30.10,10.0,SE,12.7,-,N/A,,Mostly Cloudy,130,2012-10-11 20:43:00
3:53 PM,84.0,73.0,69,30.09,10.0,SE,16.1,-,N/A,,Mostly Cloudy,130,2012-10-11 20:53:00
4:53 PM,82.4,71.6,70,30.09,10.0,SE,12.7,-,N/A,,Partly Cloudy,140,2012-10-11 21:53:00
5:53 PM,82.9,73.0,72,30.08,10.0,SE,10.4,-,N/A,,Scattered Clouds,130,2012-10-11 22:53:00
6:53 PM,81.0,73.0,77,30.09,10.0,SE,10.4,-,N/A,,Partly Cloudy,130,2012-10-11 23:53:00
7:53 PM,80.1,73.0,79,30.09,10.0,ESE,9.2,-,N/A,,Clear,120,2012-10-12 00:53:00
8:53 PM,79.0,72.0,79,30.10,10.0,ESE,8.1,-,N/A,,Clear,110,2012-10-12 01:53:00
9:53 PM,78.1,73.0,84,30.12,10.0,ESE,6.9,-,N/A,,Clear,120,2012-10-12 02:53:00
10:53 PM,77.0,73.0,88,30.12,9.0,ENE,4.6,-,N/A,,Clear,70,2012-10-12 03:53:00
11:53 PM,75.0,72.0,90,30.12,7.0,East,5.8,-,N/A,,Clear,90,2012-10-12 04:53:00